TIANLIAN 2-04

Last updated on Sat Apr 11 2026 00:02:56 GMT+0000 (Coordinated Universal Time)

1 63361U 25062A 26100.03925541 -.00000140 00000+0 00000+0 0 9996 2 63361 4.5513 275.3885 0033219 11.0859 5.9678 1.00271881 3926
UTC large
Height (km)
Speed (km/s)
/
Latitude / Longitude
Inclination (degrees)
Orbital Period (minutes)
Azimuth
Elevation
Range (km)
Doppler Factor

Next 0 passes for location: London (51.5072 / 0.1276)

Sorry there are no passes over London.
TIANLIAN 2-04